Probability
0 0 0 0 0 0 0 0 0 0 0 0 0 0 0 0 0 0 0 0 0 0 0 0 0 0 0 0 0 0 0 0 0 0 0 0 0 0 0 0 0 0 0
0 0 0 0 0 0 0 0 0 0 0 0 0 0 0 0 0 0 0 0 0 0 0 0 0 0 0 0 0 0 0 0 0 0 0 0 0 0 0 0 0 0 0
0 0 0 0 0 0 0 0 0 0 0 0 0 0 0 0 0 0 0 0 0 0 0 0 0 0 0 0 0 0 0 0 0 0 0 0 0 0 0 0 0 0 0
0 0 0 0 0 0 0 0 0 0 0 0 0 0 0 0 0 0 0 0 0 0 0 0 0 0 0 0 0 0 0 0 0 0 0 0 0 0 0 0 0 0 0
0 0 0 0 0 0 0 0 0 0 0 0 0 0 0 0 0 0 0 0 0 0 0 0 0 0 0 0 0 0 0 0 0 0 0 0 0 0 0 0 0 0 0
1 0 0 0 0 0 0 0 0 0 0 0 0 0 0 0 0 0 0 0 0 0 0 0 0 0 0 0 0 0 0 0 0 0 0 0 0 0 0 0 0 0 0
3 2 1 0 0 0 0 0 0 0 0 0 0 0 0 0 0 0 0 0 0 0 0 0 0 0 0 0 0 0 0 0 0 0 0 0 0 0 0 0 0 0 0
5 4 2 1 1 0 0 0 0 0 0 0 0 0 0 0 0 0 0 0 0 0 0 0 0 0 0 0 0 0 0 0 0 0 0 0 0 0 0 0 0 0 0
5 4 4 3 2 1 0 0 0 0 0 0 0 0 0 0 0 0 0 0 0 0 0 0 0 0 0 0 0 0 0 0 0 0 0 0 0 0 0 0 0 0 0
3 3 4 4 2 1 0 0 0 1 0 0 0 0 0 0 0 0 0 0 0 0 0 0 0 0 0 0 0 0 0 0 0 0 0 0 0 0 0 0 0 0 0
2 2 2 2 1 0 0 0 0 1 1 1 0 0 0 0 0 0 0 0 0 0 0 0 0 0 0 0 0 0 0 0 0 0 0 0 0 0 0 0 0 0 0
2 2 2 1 1 0 0 0 0 1 2 2 1 0 0 0 0 0 0 0 0 0 0 0 0 0 0 0 0 0 0 0 0 0 0 0 0 0 0 0 0 0 0
2 1 1 1 1 1 0 0 0 1 2 2 1 0 0 0 0 0 0 0 0 0 0 0 0 0 0 0 0 0 0 0 0 0 0 0 0 0 0 0 0 0 0
1 0 0 1 1 1 0 0 1 1 1 1 1 0 0 0 0 0 0 0 0 0 0 0 0 0 0 0 0 0 0 0 0 0 0 0 0 0 0 0 0 0 0
1 0 0 1 1 0 0 0 1 0 0 0 0 0 0 0 0 0 0 0 0 0 0 0 0 0 0 0 0 0 0 0 0 0 0 0 0 0 0 0 0 0 0
1 0 0 0 0 0 0 0 0 0 0 0 0 0 0 0 0 0 0 0 0 0 0 0 0 0 0 0 0 0 0 0 0 0 0 0 0 0 0 0 0 0 0
0 0 0 0 0 0 0 0 0 0 0 0 0 0 0 0 0 0 0 0 0 0 0 0 0 0 0 0 0 0 0 0 0 0 0 0 0 0 0 0 0 0 0
0 0 0 0 0 0 0 0 0 0 0 0 0 0 0 0 0 0 0 0 0 0 0 0 0 0 0 0 0 0 0 0 0 0 0 0 0 0 0 0 0 0 0
0 0 0 0 0 0 0 0 0 0 0 0 0 0 0 0 0 0 0 0 0 0 0 0 0 0 0 0 0 0 0 0 0 0 0 0 0 0 0 0 0 0 0
0 0 0 0 0 0 0 0 0 0 0 0 0 0 0 0 0 0 0 0 0 0 0 0 0 0 0 0 0 0 0 0 0 0 0 0 0 0 0 0 0 0 0
0 0 0 0 0 0 0 0 0 0 0 0 0 0 0 0 0 0 0 0 0 0 0 0 0 0 0 0 0 0 0 0 0 0 0 0 0 0 0 0 0 0 0
0 0 0 0 0 0 0 0 0 0 0 0 0 0 0 0 0 0 0 0 0 0 0 0 0 0 0 0 0 0 0 0 0 0 0 0 0 0 0 0 0 0 0
0 0 0 0 0 0 0 0 0 0 0 0 0 0 0 0 0 0 0 0 0 0 0 0 0 0 0 0 0 0 0 0 0 0 0 0 0 0 0 0 0 0 0
0 0 0 0 0 0 0 0 0 0 0 0 0 0 0 0 0 0 0 0 0 0 0 0 0 0 0 0 0 0 0 0 0 0 0 0 0 0 0 0 0 0 0
0 0 0 0 0 0 0 0 0 0 0 0 0 0 0 0 0 0 0 0 0 0 0 0 0 0 0 0 0 0 0 0 0 0 0 0 0 0 0 0 0 0 0
0 0 0 0 0 0 0 0 0 0 0 0 0 0 0 0 0 0 0 0 0 0 0 0 0 0 0 0 0 0 0 0 0 0 0 0 0 0 0 0 0 0 0
Wind_Speed
6 7 6 6 6 5 5 5 5 5 5 4 4 3 3 3 2 3 4 7 6 4 3 3 4 5 5 5 5 5 4 4 4 3 3 3 4 4 4 4 5 5 5
6 6 6 6 5 5 5 5 5 4 3 3 3 2 2 1 1 2 4 5 6 4 3 3 3 5 5 6 5 4 3 3 2 2 2 2 3 4 4 5 5 5 5
7 6 5 5 5 5 5 4 4 3 2 2 2 2 1 1 1 1 2 3 3 5 4 2 2 3 4 4 4 3 1 0 1 1 2 2 3 4 5 5 6 6 6
8 6 5 5 5 4 4 3 3 3 2 2 2 1 1 1 1 1 1 1 2 2 3 3 1 1 2 3 3 2 1 1 1 1 2 3 4 4 5 6 6 7 7
8 6 5 4 5 4 4 4 3 3 3 3 2 1 1 1 1 1 1 2 2 2 2 3 2 1 1 2 2 2 1 2 2 3 3 4 4 5 6 6 7 7 7
8 6 5 6 5 4 4 4 4 3 3 3 2 1 1 1 1 1 1 2 2 3 2 2 2 1 2 3 3 2 2 3 3 4 4 5 5 6 7 7 7 7 7
7 6 5 5 5 5 5 5 4 4 2 2 2 1 1 2 2 2 2 2 2 2 3 3 2 2 2 5 6 5 4 3 4 4 4 5 6 7 7 8 8 8 8
6 5 5 5 5 4 6 5 4 3 2 3 3 2 1 1 1 2 2 2 2 2 3 3 3 3 3 2 5 7 6 5 4 4 4 5 6 7 7 8 8 9 8
6 6 6 5 5 5 5 5 5 5 4 3 3 3 3 3 1 1 2 2 2 2 2 2 3 3 4 3 4 7 8 6 5 5 5 6 6 7 8 8 9 9 9
5 6 6 6 6 5 5 5 5 4 5 4 2 2 2 2 3 1 1 1 2 2 3 2 3 3 4 3 5 7 7 6 6 6 6 6 6 7 8 9 9 9 9
5 5 6 5 5 4 5 5 4 4 4 4 3 2 1 1 1 3 2 1 1 1 2 3 3 3 4 4 4 5 7 6 6 6 6 7 8 9 10 10 10 10 10
3 4 4 4 5 4 5 5 4 5 4 4 3 3 3 3 2 3 3 2 2 1 2 2 3 3 3 4 5 7 7 7 7 7 7 9 10 10 11 10 11 10 10
3 5 5 4 4 4 5 5 4 4 4 4 3 3 2 2 2 2 3 2 2 1 1 1 2 3 3 3 3 5 6 7 7 8 9 10 10 10 10 10 11 11 11
4 5 5 5 5 5 5 5 4 4 4 4 4 3 2 2 2 2 3 3 2 1 2 2 2 3 3 4 3 4 3 6 6 7 8 9 9 9 9 10 10 10 10
4 5 5 6 6 6 6 6 4 5 5 5 5 4 3 2 2 2 2 3 4 3 3 2 2 3 3 3 3 2 2 4 5 6 6 7 7 7 8 9 10 10 11
4 6 6 6 6 6 6 6 5 5 6 5 4 5 4 3 3 3 2 2 2 3 2 1 2 2 3 4 4 3 2 3 4 4 5 5 6 7 8 8 9 10 10
5 5 5 6 6 6 6 6 6 6 6 6 5 6 5 5 4 3 3 2 2 2 2 1 1 2 3 3 3 2 1 1 1 3 3 4 5 6 6 8 8 9 10
4 5 5 5 6 6 7 7 7 7 7 7 7 7 6 5 5 4 4 3 3 2 3 2 1 1 2 3 3 2 1 1 1 2 2 3 3 4 5 6 8 8 9
2 3 4 5 6 6 6 6 7 7 7 7 7 8 7 7 6 5 5 4 3 2 2 2 1 1 1 2 2 1 1 0 0 1 1 1 2 3 4 5 6 8 9
1 2 3 3 4 5 6 6 6 6 6 6 6 7 7 7 7 7 5 5 4 3 3 2 2 2 2 2 2 2 2 2 1 1 1 1 0 1 2 4 5 7 8
0 1 2 3 3 4 4 6 6 6 6 6 5 5 6 7 7 7 5 5 5 4 3 3 3 2 3 2 3 3 2 2 1 1 1 1 1 0 1 2 3 5 6
1 1 2 3 4 3 6 8 7 6 6 7 6 5 6 7 8 9 9 8 7 6 5 4 3 4 4 4 3 3 3 2 2 1 1 1 1 1 0 0 2 4 5
1 1 2 3 3 4 8 9 9 6 6 6 7 7 5 6 8 6 7 8 5 5 5 4 4 4 4 4 5 3 3 3 2 2 2 1 1 1 1 1 2 2 3
2 2 2 3 3 5 8 9 9 5 5 5 6 7 7 7 7 8 6 5 4 3 4 3 3 2 2 3 5 5 4 3 2 0 2 1 1 1 1 1 1 1 2
3 3 2 3 3 4 8 10 9 4 4 5 6 7 8 8 12 14 8 7 5 4 4 6 6 5 6 6 5 4 4 3 2 2 1 2 1 1 1 1 1 1 1
3 3 3 3 4 4 8 11 11 5 5 5 5 6 10 11 14 15 8 8 7 5 5 4 4 4 3 3 5 4 4 4 2 2 2 2 1 1 0 1 1 1 1
Wind_Direction
154 156 161 165 171 173 170 182 203 195 193 189 198 197 178 196 191 147 146 165 168 186 220 261 276 278 280 283 284 274 261 263 268 269 270 275 284 296 305 313 322 325 329
159 158 160 163 172 167 166 186 198 180 183 177 187 191 185 191 186 132 142 167 180 188 204 240 279 288 288 285 284 286 274 259 260 276 285 297 297 292 293 299 302 305 307
162 162 158 161 167 161 164 181 194 162 164 160 179 196 180 167 98 97 126 148 169 192 199 220 285 304 306 301 295 300 304 259 244 315 314 310 317 313 300 297 297 295 293
163 163 157 163 164 158 160 169 164 147 155 160 187 194 165 131 55 52 76 114 128 139 174 186 230 316 327 329 329 331 4 76 71 14 349 344 339 332 323 315 307 296 287
164 160 158 162 161 155 156 165 161 160 169 175 180 156 139 138 167 140 109 108 109 115 130 150 156 96 21 1 349 3 55 72 61 44 22 358 341 329 326 319 316 307 297
164 158 159 166 160 153 162 166 168 172 163 159 154 151 181 183 158 133 129 110 100 93 88 108 127 88 70 42 33 51 72 69 53 42 25 9 354 339 332 328 317 309 305
162 159 163 167 164 163 170 170 166 168 169 146 127 175 255 209 167 152 127 102 104 98 83 69 75 81 82 61 46 51 59 60 46 31 18 4 349 340 331 332 330 321 306
163 163 164 170 170 169 174 176 164 162 170 160 154 153 202 288 232 157 127 117 120 118 103 81 67 62 68 75 59 52 45 40 28 16 5 351 345 339 340 338 337 333 325
167 169 171 170 175 174 180 179 171 169 174 180 171 163 171 199 177 177 164 150 144 120 108 95 81 65 65 68 62 44 38 25 12 360 352 348 352 356 354 351 346 344 346
172 173 174 176 179 178 177 176 172 171 165 174 181 185 164 141 141 156 233 178 147 131 121 103 93 80 75 76 70 51 35 20 7 356 358 11 20 16 9 4 0 358 355
176 178 178 180 174 173 174 169 167 169 166 169 168 164 169 125 141 146 193 209 196 174 129 107 93 86 74 72 69 48 35 24 12 9 13 23 28 20 13 9 4 1 357
169 179 179 171 166 169 167 165 164 167 168 164 160 155 153 159 179 171 192 198 198 184 124 111 106 101 88 81 69 54 42 34 26 22 28 37 35 25 15 10 6 3 359
177 186 182 168 167 169 160 154 153 163 164 159 163 166 160 171 150 151 171 186 165 162 145 138 130 120 107 98 83 59 53 46 40 37 37 40 37 27 16 11 6 3 1
177 178 174 169 170 170 163 157 155 167 165 159 165 165 157 166 143 152 158 153 163 216 202 190 120 119 111 102 94 71 68 60 52 44 44 43 38 26 20 16 11 6 5
169 173 176 174 171 171 169 160 167 172 169 167 167 165 161 157 143 136 131 143 162 192 222 178 130 123 116 110 104 77 74 66 65 62 58 49 38 27 25 21 16 12 11
172 176 183 177 170 170 172 169 163 171 171 168 160 160 162 156 140 137 141 142 150 168 201 164 135 137 128 125 120 94 82 75 74 74 63 50 40 33 28 25 18 15 12
176 178 182 176 170 170 173 175 174 172 174 166 164 167 169 156 150 149 146 154 163 160 197 196 94 117 128 137 129 114 93 59 81 78 69 55 45 38 31 26 20 16 13
176 179 178 175 175 176 178 180 179 177 177 175 174 169 169 156 154 154 157 165 168 165 173 197 156 138 141 145 135 135 136 116 104 94 82 63 51 42 35 29 25 22 17
165 174 177 181 180 180 180 180 179 178 179 179 176 173 168 162 168 162 162 167 167 162 159 168 175 139 131 130 127 155 183 185 188 160 159 91 55 40 32 29 29 26 20
162 177 182 184 179 179 179 178 176 177 176 174 171 169 167 170 173 167 167 171 165 163 166 176 186 181 173 159 160 184 205 206 215 208 212 192 39 21 25 33 34 28 23
149 177 178 181 179 180 183 178 176 175 169 161 154 154 156 157 160 163 165 167 164 169 176 184 192 184 182 175 196 186 190 177 211 204 197 235 209 317 344 24 35 28 25
317 212 201 193 192 195 187 185 178 174 169 164 162 155 147 145 155 160 161 163 167 175 183 183 192 200 202 194 175 168 159 153 229 225 162 235 160 171 202 80 42 36 32
297 253 224 207 205 198 189 189 185 172 169 169 165 160 161 168 162 153 161 159 163 171 175 172 187 201 193 184 162 162 176 179 193 183 136 218 197 193 203 124 72 33 37
286 268 251 226 210 203 196 191 183 170 164 166 167 168 166 164 169 164 162 161 165 172 175 169 175 178 160 149 156 166 168 132 96 113 129 181 209 203 176 158 147 67 57
288 276 265 245 228 212 199 194 182 166 168 174 173 174 171 173 184 180 168 163 165 171 162 145 138 136 131 137 141 125 131 130 172 217 180 162 187 169 180 206 203 160 114
273 268 261 250 233 222 209 203 190 177 177 179 179 185 190 188 190 186 174 170 179 182 161 150 143 140 136 154 156 151 156 155 163 193 199 156 154 113 309 279 203 218 297